Wind_Speed
20 21 22 22 22 22 22 22 23 23 23 24 24 23 24 25 24 24 25 25 26 26 25 25 27 27 26 25 24 24 24 24 24 24 25 25 25 25
19 19 19 20 20 21 21 21 22 22 21 21 22 22 22 23 23 22 22 23 25 25 25 25 26 26 26 26 26 26 25 25 25 25 25 25 25 25
17 17 18 18 18 19 19 19 19 19 20 19 19 20 20 20 21 21 21 22 23 25 25 26 26 25 26 27 27 26 26 26 26 26 25 25 25 26
17 17 17 16 16 16 16 15 16 17 17 16 16 17 18 18 19 20 20 21 22 23 24 25 25 25 25 26 26 26 26 26 26 26 25 26 26 26
15 15 14 14 14 14 13 12 13 14 15 16 16 16 17 17 18 17 18 19 21 22 22 23 23 24 24 24 25 25 25 25 25 25 25 25 25 26
14 13 13 13 13 12 11 11 11 12 12 14 15 16 16 16 16 16 16 17 18 19 20 21 21 22 23 23 23 24 24 24 24 24 24 24 24 24
13 12 12 12 12 11 10 11 11 10 11 12 12 14 14 14 14 14 15 15 16 17 18 18 20 20 20 20 21 22 23 23 23 24 23 24 24 24
11 11 10 10 10 11 10 9 9 9 9 9 9 10 10 11 12 12 12 12 13 14 15 16 17 18 19 19 20 21 22 22 22 23 24 23 23 23
10 9 10 10 10 9 9 8 8 8 7 6 6 7 9 9 9 10 11 12 12 12 13 13 15 16 17 17 18 19 19 20 21 22 22 22 22 22
9 9 9 8 8 8 8 8 8 7 6 5 5 6 7 7 7 8 9 9 10 11 11 11 12 14 14 15 16 17 18 20 20 20 20 19 20 21
8 8 8 8 8 8 7 7 6 6 5 5 4 4 5 5 6 8 8 9 9 10 11 11 12 12 13 14 15 15 16 17 17 17 17 18 19 19
9 8 8 7 7 7 8 7 6 6 6 5 5 5 5 6 7 8 8 9 10 10 11 11 11 12 12 13 13 14 14 15 15 16 17 18 19 20
8 8 8 8 8 8 8 7 8 7 7 7 7 7 7 7 7 8 9 10 11 11 11 11 11 12 12 13 13 14 15 16 16 17 17 18 19 20
9 8 8 8 8 8 8 8 8 8 8 8 9 8 8 8 9 9 9 10 10 10 11 12 12 13 13 14 14 15 15 16 17 17 18 19 20 20
9 8 8 8 8 8 8 8 8 8 7 8 8 8 9 9 10 10 10 10 10 11 12 12 13 14 15 15 15 16 17 17 18 18 19 20 20 20
10 9 9 9 9 9 8 8 8 8 8 8 8 9 9 9 9 9 10 11 11 12 12 12 13 14 14 14 15 16 17 18 18 19 19 20 20 21
10 10 11 10 9 8 8 8 8 7 8 8 9 9 9 10 11 11 12 13 14 14 14 14 14 15 15 16 16 17 18 19 20 21 21 22 22 23
11 11 11 10 10 8 8 8 8 8 9 9 9 10 11 11 12 13 14 14 15 15 16 16 17 17 17 18 19 19 19 20 21 21 22 23 23 24
12 11 11 11 10 9 9 9 9 10 11 11 11 11 13 13 14 14 14 15 16 17 17 17 18 19 20 20 20 21 21 22 22 23 23 24 24 25
12 12 12 12 11 11 11 11 11 12 12 13 13 14 14 15 15 15 16 16 17 18 18 18 19 21 22 22 21 22 23 23 24 24 25 26 26 26
13 13 13 14 13 13 13 14 14 14 14 15 15 15 16 17 17 18 19 19 19 19 19 20 21 22 23 23 23 23 24 25 25 25 26 26 27 28
14 14 15 15 16 16 16 16 16 17 17 17 18 18 19 19 20 20 21 21 21 20 21 21 22 23 24 24 25 25 25 25 26 27 27 28 29 29
16 16 17 17 18 18 18 19 19 20 20 20 21 22 23 23 22 23 23 23 23 23 24 24 24 25 25 26 27 27 27 27 28 28 28 29 29 29
Wind_Direction
293 289 286 283 280 280 278 273 270 269 268 265 263 263 262 257 256 254 255 255 255 255 256 257 258 256 255 256 257 258 260 262 263 264 264 266 266 266
296 293 290 286 283 281 282 278 272 270 270 267 264 262 261 258 256 255 256 255 256 256 257 257 258 257 255 256 258 258 259 261 262 263 264 266 267 268
298 296 293 290 285 284 284 278 272 270 269 267 266 265 263 259 256 257 257 257 256 256 256 255 255 255 256 257 258 259 260 261 262 262 262 264 266 268
298 298 297 294 290 287 285 279 274 273 267 263 263 262 263 262 260 260 258 256 256 256 255 255 255 255 257 259 260 260 261 262 262 260 261 263 265 268
301 300 299 297 294 292 286 282 278 273 266 261 263 263 262 262 263 263 260 258 257 256 257 256 256 255 257 258 260 260 261 263 262 261 261 262 266 268
305 302 300 298 297 295 291 291 286 278 268 264 264 265 265 263 262 262 260 260 259 258 257 255 255 255 257 259 260 261 261 261 260 260 262 264 266 269
306 304 303 302 301 294 289 292 291 284 275 271 270 267 265 263 263 262 260 261 260 260 258 255 254 255 258 261 262 261 259 258 258 259 261 263 265 267
306 304 300 299 301 294 291 288 287 287 281 274 276 273 266 263 265 264 263 264 264 263 262 258 256 255 257 260 261 259 257 255 258 261 263 263 264 266
308 302 297 295 298 297 291 296 295 292 284 274 276 275 272 268 267 264 263 261 260 263 263 261 258 257 258 260 261 259 258 256 258 261 262 261 263 267
311 306 304 301 300 300 296 299 301 294 287 279 285 280 279 275 271 264 262 261 260 261 262 263 260 260 259 258 260 259 261 262 261 262 263 263 267 269
322 316 311 302 301 304 303 298 298 295 293 291 293 284 291 290 275 264 262 263 262 264 264 266 267 265 262 262 263 264 264 262 261 263 265 267 270 272
324 321 318 309 303 306 308 302 297 297 295 293 289 283 289 291 287 277 270 267 264 267 266 267 268 266 263 263 266 267 267 266 265 265 267 270 273 274
331 327 322 317 312 312 313 305 298 290 285 284 280 279 282 285 291 292 279 275 271 269 267 267 268 268 267 266 267 269 269 270 268 269 271 272 275 277
340 335 330 323 318 316 316 312 302 294 284 282 283 281 281 283 285 288 288 282 275 271 271 271 271 271 270 270 270 269 268 268 269 270 272 274 277 277
349 343 337 330 322 319 316 310 305 300 291 289 289 283 284 286 285 286 288 286 284 277 277 276 276 275 275 272 271 271 272 272 273 274 277 277 278 278
348 346 341 335 327 319 315 312 306 301 295 290 291 288 286 289 289 287 287 286 285 285 286 284 284 282 280 277 276 276 275 274 275 277 278 279 281 282
341 341 339 336 333 329 323 317 312 305 303 301 296 293 291 292 292 290 286 285 285 285 285 286 285 281 281 280 281 281 279 278 278 280 281 281 281 282
341 339 339 337 336 331 328 323 314 307 307 309 305 299 297 295 293 290 288 287 286 284 284 282 281 281 281 281 282 283 280 279 280 282 284 283 283 283
340 336 334 332 330 329 323 319 313 307 305 304 302 299 298 298 297 294 293 291 289 287 287 284 282 283 284 283 283 284 283 282 282 283 284 284 285 285
334 334 334 332 328 325 323 318 311 306 306 305 303 302 300 299 297 297 297 294 292 290 288 286 286 286 286 285 284 284 286 286 285 285 286 287 288 288
329 329 330 328 325 321 318 314 311 307 304 303 303 301 301 302 301 299 299 297 295 292 289 287 287 287 287 286 286 285 285 286 286 286 287 287 288 289
329 327 327 325 323 320 318 316 314 311 306 302 302 302 302 302 301 300 299 297 295 293 293 291 289 287 286 286 286 287 288 287 286 287 289 289 290 290
327 325 324 321 318 315 314 311 310 309 307 304 300 299 299 299 299 299 299 295 293 291 291 291 290 289 288 287 288 289 290 290 289 289 289 289 290 290
Height
5744 5743 5742 5741 5741 5740 5740 5740 5741 5742 5743 5743 5745 5746 5747 5749 5750 5752 5755 5758 5760 5763 5765 5767 5769 5771 5773 5775 5777 5779 5780 5781 5782 5783 5784 5785 5786 5786
5739 5738 5737 5736 5735 5735 5734 5734 5734 5735 5736 5737 5738 5739 5740 5742 5744 5746 5748 5750 5753 5755 5757 5759 5762 5763 5766 5768 5770 5771 5773 5774 5775 5776 5777 5778 5778 5779
5735 5734 5733 5731 5731 5730 5729 5729 5729 5729 5730 5731 5731 5733 5734 5736 5737 5738 5740 5743 5745 5747 5749 5752 5754 5756 5758 5760 5762 5764 5765 5767 5768 5769 5770 5770 5771 5772
5731 5730 5728 5727 5726 5725 5724 5724 5724 5724 5724 5725 5726 5727 5728 5730 5731 5732 5734 5735 5738 5740 5742 5744 5746 5749 5751 5753 5754 5756 5757 5759 5760 5761 5762 5763 5763 5764
5726 5725 5724 5723 5722 5721 5721 5720 5720 5719 5720 5720 5720 5721 5723 5724 5725 5726 5727 5729 5731 5733 5735 5737 5739 5741 5743 5745 5747 5748 5750 5751 5752 5753 5754 5755 5756 5756
5723 5722 5721 5720 5719 5718 5717 5717 5716 5716 5715 5716 5716 5717 5717 5718 5720 5721 5722 5723 5725 5727 5729 5730 5732 5734 5736 5738 5740 5741 5742 5743 5745 5746 5747 5748 5749 5749
5720 5718 5718 5717 5716 5715 5715 5714 5713 5713 5712 5712 5713 5713 5713 5714 5715 5716 5717 5719 5720 5722 5723 5725 5726 5728 5730 5731 5732 5734 5735 5736 5738 5739 5740 5741 5742 5742
5717 5716 5715 5715 5714 5713 5712 5712 5711 5710 5710 5710 5710 5710 5710 5711 5711 5713 5714 5715 5716 5718 5719 5720 5722 5723 5724 5725 5726 5727 5728 5730 5731 5732 5733 5734 5735 5735
5714 5714 5713 5712 5712 5711 5711 5710 5709 5709 5708 5708 5708 5708 5708 5708 5709 5710 5711 5712 5713 5714 5715 5716 5717 5718 5719 5720 5721 5722 5722 5724 5725 5726 5726 5727 5728 5728
5713 5712 5711 5711 5710 5710 5709 5709 5708 5707 5707 5706 5706 5707 5707 5707 5707 5708 5708 5709 5710 5711 5711 5712 5713 5714 5715 5715 5716 5717 5717 5718 5719 5720 5720 5721 5722 5722
5711 5710 5710 5710 5709 5708 5708 5707 5707 5706 5706 5705 5705 5706 5706 5705 5705 5706 5706 5707 5707 5708 5708 5709 5710 5710 5711 5711 5711 5712 5712 5713 5713 5714 5715 5715 5716 5716
5710 5709 5709 5708 5708 5707 5706 5706 5705 5705 5705 5705 5705 5705 5704 5704 5704 5704 5704 5704 5705 5705 5705 5706 5706 5707 5707 5707 5708 5708 5708 5708 5708 5709 5709 5709 5710 5709
5710 5709 5708 5707 5706 5705 5705 5704 5704 5704 5704 5703 5703 5703 5703 5703 5702 5702 5702 5702 5702 5702 5702 5703 5703 5703 5703 5704 5704 5704 5704 5704 5704 5704 5704 5704 5704 5703
5709 5708 5707 5706 5705 5704 5703 5703 5702 5702 5702 5702 5701 5701 5701 5701 5700 5700 5700 5699 5699 5699 5699 5699 5699 5699 5699 5699 5699 5699 5699 5699 5699 5699 5698 5698 5697 5697
5709 5707 5706 5705 5704 5703 5702 5701 5700 5700 5700 5699 5699 5699 5698 5698 5698 5697 5697 5696 5696 5696 5695 5695 5695 5695 5694 5694 5694 5694 5694 5693 5693 5693 5692 5692 5691 5690
5709 5707 5705 5704 5703 5702 5701 5700 5699 5698 5698 5697 5697 5696 5696 5695 5695 5695 5694 5694 5693 5693 5692 5691 5690 5690 5690 5689 5689 5688 5688 5688 5687 5687 5686 5685 5684 5683
5708 5706 5705 5703 5702 5701 5700 5699 5698 5697 5696 5696 5695 5694 5693 5693 5692 5691 5691 5690 5690 5689 5688 5687 5686 5686 5685 5684 5684 5683 5682 5682 5681 5680 5679 5678 5677 5676
5707 5705 5704 5702 5701 5699 5698 5697 5696 5695 5694 5693 5692 5691 5691 5690 5689 5688 5687 5686 5685 5684 5683 5682 5681 5680 5680 5679 5678 5677 5676 5675 5674 5673 5672 5670 5670 5669
5706 5704 5703 5701 5700 5698 5697 5695 5694 5693 5692 5691 5689 5688 5687 5686 5685 5683 5682 5681 5680 5679 5678 5677 5675 5674 5674 5673 5672 5671 5669 5668 5667 5665 5664 5663 5661 5660
5705 5703 5701 5700 5698 5696 5695 5693 5692 5690 5689 5688 5686 5685 5683 5682 5680 5679 5677 5676 5674 5673 5672 5671 5670 5668 5667 5666 5665 5664 5662 5660 5659 5657 5656 5654 5653 5651
5704 5702 5700 5698 5696 5694 5692 5691 5689 5687 5686 5684 5683 5681 5679 5678 5676 5674 5672 5670 5669 5667 5666 5665 5663 5662 5660 5659 5658 5657 5655 5653 5651 5649 5647 5646 5644 5642
5701 5699 5697 5695 5693 5691 5689 5687 5685 5683 5682 5680 5678 5676 5674 5672 5670 5668 5666 5664 5662 5661 5659 5658 5656 5654 5653 5651 5650 5648 5647 5645 5643 5641 5639 5637 5634 5633
5698 5696 5694 5692 5690 5688 5685 5683 5681 5679 5677 5675 5672 5670 5668 5666 5664 5662 5660 5657 5656 5654 5652 5650 5648 5646 5644 5643 5641 5639 5638 5636 5633 5632 5630 5628 5625 5623